User: anonymous   Login
Location: Unnamed
(23.5608°S, 46.6833°W)
Time: 07:13:25
(UTC-03:00)
Language:

CUTE-I - Orbit

View from above orbital plane
View from above orbital plane
View from above satellite
View from above satellite

Ground track
Ground track

The orbit data is extracted from the following two-line orbital elements,

1 27844U 03031E   24205.43511641  .00001042  00000-0  47884-3 0  9991
2 27844  98.6770 211.9594 0010619  45.2279 314.9761 14.23330672 92947
Epoch (UTC): 23 July 2024 10:26:34
Eccentricity: 0.0010619
inclination: 98.6770°
perigee height: 806 km
apogee height: 822 km
right ascension of ascending node: 211.9594°
argument of perigee: 45.2279°
revolutions per day: 14.23330672
mean anomaly at epoch: 314.9761°
orbit number at epoch: 9294

The dashed part of the orbit path shows where the satellite is in the earth's shadow,  

DLR